sat.trackr.live / text

‹ back to catalog

TIANQI-12

NORAD 48426 · 2021-039D

PAYLOAD ACTIVE UNKNOWN

§ Identity

Operator
Country
PRC
Launch date
2021-05-06
Launch site
XICLF
Launch vehicle
Mass (kg)
RCS (m²)

External: N2YO · Heavens-Above · Gunter

§ Orbital elements

Epoch: 2026-09-21T21:10:15.619872Z

Period
95.18 min
Inclination
34.9977°
Eccentricity
0.0003167
Mean motion
15.12947534 rev/d
Perigee alt
525.0 km
Apogee alt
529.4 km
Semi-major
6,905.4 km
B*
2.2174e-4
RAAN
87.3420°
Arg perigee
70.5769°
Mean anomaly
289.5285°
Rev number
29,487

§ Raw data

TIANQI-121 48426U 21039D   26264.88212523  .00003965  00000+0  22174-3 0  99912 48426  34.9977  87.3420 0003167  70.5769 289.5285 15.12947534294870

JSON: /api/v1/satellites/48426 · /tle

For live sub-satellite position, see the globe view (requires WebGL).

§ Visibility from observer

Set your observer location to see the next 7 days of passes ≥ 10°. The values pass through the URL so the page stays shareable.

No JS? Fill the form by hand. The geolocation button needs JavaScript.